Weather History for North Island, CA

Change the Weather History Date:

Friday, November 15, 2013

  Actual Average Record
Temperature  
Mean Temperature 68 °F -  
Max Temperature 71 °F 66 °F 93 °F (2008)
Min Temperature 64 °F 51 °F 46 °F (2000)
Cooling Degree Days 2    
Growing Degree Days 18 (Base 50)    
Moisture  
Dew Point 57 °F    
Average Humidity 70    
Maximum Humidity 75    
Minimum Humidity 61    
Precipitation  
Precipitation 0.00 in - - ()
Sea Level Pressure  
Sea Level Pressure 29.75 in    
Wind  
Wind Speed 12 mph (SSW)    
Max Wind Speed 17 mph    
Max Gust Speed -    
Visibility 8 miles    
Events Rain    
Averages and records for this station are not official NWS values.
T = Trace of Precipitation, MM = Missing Value Source: NWS Daily Summary

Daily Weather History Graph

Daily Weather History Graph

Search for Another Location

Airport:

Trip Planner

Search our weather history database for the weather conditions in past years. The results will help you decide how hot, cold, wet, or windy it might be!

Date:

Astronomy

Nov. 15, 2013 Rise Set
Actual Time 6:19 AM PST 4:47 PM PST
Civil Twilight 5:52 AM PST 5:13 PM PST
Nautical Twilight 5:23 AM PST 5:43 PM PST
Astronomical Twilight 4:53 AM PST 6:12 PM PST
Moon 3:43 PM PST (11/15) 4:25 AM PST (11/15)
Length of Visible Light 11h 20m
Length of Day
10h 28m
Waxing Gibbous, 97% of the Moon is Illuminated
Nov 15
Waxing Gibbous
Nov 17
Full
Nov 25
Last Quarter
Dec 2
New
Dec 9
First Quarter

Hourly Weather History & Observations

Time (PST) Temp. Dew Point Humidity Pressure Visibility Wind Dir Wind Speed Gust Speed Precip Events Conditions
12:52 AM 66.0 °F 57.9 °F 75% 29.78 in 5.0 mi SSE 12.7 mph - N/A   Haze
1:52 AM 66.0 °F 57.0 °F 73% 29.76 in 8.0 mi South 15.0 mph - N/A   Overcast
2:52 AM 66.0 °F 57.9 °F 75% 29.77 in 8.0 mi South 11.5 mph - N/A   Overcast
3:15 AM - - N/A% - - North - - N/A   Unknown
3:52 AM 66.9 °F 57.0 °F 70% 29.76 in 8.0 mi SSE 11.5 mph - N/A   Overcast
4:00 AM - - N/A% - - North - - N/A   Unknown
4:52 AM 66.0 °F 57.9 °F 75% 29.75 in 7.0 mi South 11.5 mph - N/A   Overcast
5:52 AM 66.0 °F 57.0 °F 73% 29.75 in 8.0 mi South 11.5 mph - N/A   Overcast
6:52 AM 66.0 °F 57.0 °F 73% 29.78 in 8.0 mi SSW 12.7 mph - N/A   Overcast
7:52 AM 66.9 °F 55.9 °F 68% 29.76 in 7.0 mi South 15.0 mph - N/A   Overcast
8:52 AM 66.9 °F 55.9 °F 68% 29.77 in 8.0 mi South 15.0 mph - N/A   Mostly Cloudy
9:52 AM 66.9 °F 55.9 °F 68% 29.77 in 8.0 mi South 17.3 mph - N/A   Mostly Cloudy
10:52 AM 66.9 °F 55.9 °F 68% 29.77 in 8.0 mi South 13.8 mph - N/A   Mostly Cloudy
11:52 AM 70.0 °F 57.9 °F 65% 29.74 in 8.0 mi South 16.1 mph - N/A   Mostly Cloudy
12:52 PM 71.1 °F 57.0 °F 61% 29.71 in 8.0 mi South 16.1 mph - N/A   Mostly Cloudy
1:52 PM 70.0 °F 57.0 °F 63% 29.70 in 8.0 mi SSW 11.5 mph - N/A   Mostly Cloudy
2:52 PM 69.1 °F 55.9 °F 63% 29.70 in 8.0 mi SSW 10.4 mph - N/A   Mostly Cloudy
3:52 PM 68.0 °F 57.0 °F 68% 29.70 in 8.0 mi South 9.2 mph - N/A   Mostly Cloudy
4:52 PM 66.0 °F 57.0 °F 73% 29.70 in 7.0 mi SSW 8.1 mph - N/A   Mostly Cloudy
5:23 PM 66.9 °F 57.0 °F 70% 29.71 in 7.0 mi SW 10.4 mph - N/A   Mostly Cloudy
5:52 PM 66.9 °F 57.0 °F 70% 29.72 in 7.0 mi WSW 10.4 mph - N/A   Mostly Cloudy
6:09 PM 66.0 °F 57.0 °F 73% 29.73 in 7.0 mi SW 10.4 mph - 0.00 in Rain Light Rain
6:32 PM 66.0 °F 57.0 °F 73% 29.73 in 7.0 mi WSW 12.7 mph - 0.00 in   Mostly Cloudy
6:52 PM 66.0 °F 57.0 °F 73% 29.74 in 7.0 mi SSW 9.2 mph - 0.00 in   Mostly Cloudy
7:52 PM 64.9 °F 55.9 °F 73% 29.75 in 7.0 mi SW 9.2 mph - N/A   Mostly Cloudy
8:52 PM 64.9 °F 55.0 °F 70% 29.76 in 7.0 mi WSW 6.9 mph - N/A   Mostly Cloudy
9:52 PM 66.0 °F 55.0 °F 68% 29.78 in 7.0 mi SW 6.9 mph - N/A   Mostly Cloudy
10:52 PM 64.9 °F 54.0 °F 68% 29.78 in 8.0 mi SW 6.9 mph - N/A   Mostly Cloudy
11:52 PM 64.0 °F 54.0 °F 70% 29.78 in 9.0 mi SW 8.1 mph - N/A   Mostly Cloudy